[[{"header":{"parameterUnit":"m.s-1","parameterCategory":2,"la1":30.2992,"la2":30.254,"lo1":-89.0895,"lo2":-89.0443,"dy":0.0025,"dx":0.0025,"nx":19,"ny":19,"refTime":"2026-05-08T03:00:00:Z","depth":"0","parameterNumber":2,"parameterNumberName":"U-component_of_CURRENTS"},"data":[0,0,0,-0.1554,-0.1554,-0.1544,-0.1544,-0.148,-0.1479,0,0,0,0,0,0,0,0,0,0,0,-0.1552,-0.1552,-0.1554,-0.1554,-0.1544,-0.1544,-0.148,-0.1479,0,0,0,0,0,0,0,0,0,0,0,-0.1552,-0.1552,-0.1552,-0.1554,-0.1544,-0.1544,-0.148,-0.15,0,0,0,0,0,0,0,0,0,0,-0.1516,-0.1531,-0.1552,-0.1552,-0.1554,-0.1544,-0.1544,-0.1502,-0.1499,-0.147,0,-0.1465,0,-0.1472,-0.1474,-0.1473,0,0,0,-0.1553,-0.1533,-0.1522,-0.1552,-0.1554,-0.1544,-0.1548,-0.15,-0.1497,-0.1466,-0.1465,-0.1463,-0.1471,-0.1473,-0.1473,-0.143,-0.1431,0,0,-0.1554,-0.1557,-0.1525,-0.152,-0.1546,-0.1548,-0.1548,-0.1499,-0.1497,-0.1465,-0.1462,-0.1469,-0.1473,-0.1472,-0.143,-0.143,0,0,0,-0.1556,-0.1558,-0.1549,-0.1522,-0.1525,-0.1548,-0.1547,-0.1499,-0.1494,-0.1461,-0.1469,-0.1472,-0.1471,-0.143,-0.143,-0.1496,0,0,0,-0.1556,-0.1559,-0.1549,-0.1553,-0.1526,-0.1521,-0.1548,-0.1497,-0.1492,-0.1469,-0.1472,-0.147,-0.143,-0.143,-0.1494,-0.15,0,0,0,-0.1554,-0.1559,-0.1555,-0.1553,-0.1549,-0.1523,-0.1515,-0.1497,-0.1496,-0.1473,-0.147,-0.143,-0.143,-0.1492,-0.1498,-0.1512,0,0,0,-0.1562,-0.1559,-0.1555,-0.156,-0.1549,-0.1556,-0.1516,-0.1512,-0.1497,-0.1472,-0.143,-0.143,-0.1491,-0.1496,-0.151,-0.1593,-0.1607,0,0,-0.1563,-0.1559,-0.1565,-0.1561,-0.1579,-0.1557,-0.1577,-0.1535,-0.149,-0.1441,-0.1441,-0.1494,-0.1497,-0.1511,-0.1612,-0.1626,0,0,0,-0.157,-0.1569,-0.1577,-0.1585,-0.159,-0.1598,-0.1571,-0.1556,-0.152,-0.1482,-0.1482,-0.1481,-0.1489,-0.1535,-0.1546,-0.1485,-0.1432,-0.1432,-0.1432,-0.1561,-0.1575,-0.1587,-0.1603,-0.1612,-0.1622,-0.1625,-0.1591,-0.1552,-0.1546,-0.1528,-0.1569,-0.162,-0.1629,-0.1565,-0.153,-0.153,-0.153,-0.153,-0.156,-0.1565,-0.1588,-0.1602,-0.1623,-0.1633,-0.1643,-0.1634,-0.1619,-0.1579,-0.1584,-0.1592,-0.1645,-0.1572,-0.1534,-0.1534,-0.1533,-0.1533,-0.1532,-0.1548,-0.1552,-0.1561,-0.1581,-0.1598,-0.1623,-0.1642,-0.1647,-0.1645,-0.166,-0.1681,-0.1681,-0.1621,-0.1655,-0.1655,-0.1655,-0.1655,-0.1655,-0.1655,-0.1528,-0.1537,-0.1546,-0.1556,-0.1566,-0.1585,-0.1627,-0.1653,-0.1711,-0.1737,-0.1738,-0.1632,-0.1606,-0.1606,-0.1657,-0.1657,-0.1657,-0.1657,-0.1656,-0.1509,-0.1507,-0.1521,-0.1529,-0.1555,-0.1572,-0.1622,-0.173,-0.1763,-0.1811,-0.1771,-0.1784,-0.1763,-0.1754,-0.1757,-0.1844,-0.1844,-0.1844,-0.1844,-0.1486,-0.1491,-0.1509,-0.1525,-0.1544,-0.157,-0.1674,-0.1805,-0.1865,-0.1885,-0.1811,-0.1805,-0.18,-0.1778,-0.1769,-0.177,-0.1858,-0.1858,-0.1858,-0.1468,-0.1481,-0.1488,-0.1515,-0.1537,-0.1583,-0.1691,-0.1843,-0.191,-0.1846,-0.1707,-0.1707,-0.1682,-0.1679,-0.1629,-0.1621,-0.1617,0,0]},{"header":{"parameterUnit":"m.s-1","parameterCategory":2,"la1":30.2992,"la2":30.254,"lo1":-89.0895,"lo2":-89.0443,"dy":0.0025,"dx":0.0025,"nx":19,"ny":19,"refTime":"2026-05-08T03:00:00:Z","depth":"0","parameterNumber":3,"parameterNumberName":"V-component_of_CURRENTS"},"data":[0,0,0,-0.0836,-0.0833,-0.0673,-0.0673,-0.0507,-0.0505,0,0,0,0,0,0,0,0,0,0,0,-0.0898,-0.0898,-0.0836,-0.0833,-0.0674,-0.0673,-0.0507,-0.0505,0,0,0,0,0,0,0,0,0,0,0,-0.0899,-0.0898,-0.0897,-0.0832,-0.0674,-0.0673,-0.0507,-0.0615,0,0,0,0,0,0,0,0,0,0,-0.0764,-0.082,-0.0898,-0.0897,-0.0831,-0.0674,-0.0672,-0.062,-0.0608,-0.0593,0,-0.0578,0,-0.054,-0.0496,-0.0496,0,0,0,-0.0821,-0.083,-0.0788,-0.0897,-0.083,-0.0674,-0.0742,-0.0613,-0.06,-0.0578,-0.0575,-0.0568,-0.0537,-0.0495,-0.0495,-0.0442,-0.0443,0,0,-0.083,-0.0864,-0.0797,-0.078,-0.0801,-0.0747,-0.0737,-0.0605,-0.0597,-0.0574,-0.0564,-0.0534,-0.0494,-0.0493,-0.0442,-0.0443,0,0,0,-0.0863,-0.087,-0.083,-0.0788,-0.0757,-0.0743,-0.0731,-0.0603,-0.059,-0.0562,-0.0532,-0.0494,-0.0492,-0.0442,-0.0442,-0.0549,0,0,0,-0.0868,-0.089,-0.0835,-0.0853,-0.076,-0.0672,-0.0733,-0.0599,-0.0583,-0.0533,-0.0493,-0.0491,-0.0441,-0.0442,-0.0545,-0.0584,0,0,0,-0.0903,-0.0893,-0.0879,-0.0855,-0.079,-0.0673,-0.0652,-0.0594,-0.0566,-0.0496,-0.049,-0.0441,-0.0442,-0.0542,-0.0578,-0.0626,0,0,0,-0.0937,-0.0923,-0.088,-0.0869,-0.0792,-0.074,-0.0652,-0.0593,-0.0542,-0.0493,-0.0441,-0.0442,-0.0541,-0.0574,-0.0622,-0.0689,-0.0712,0,0,-0.0941,-0.0925,-0.0923,-0.088,-0.0862,-0.076,-0.0742,-0.0631,-0.0553,-0.0484,-0.0481,-0.0547,-0.0577,-0.0625,-0.0752,-0.0773,0,0,0,-0.0939,-0.0932,-0.0923,-0.09,-0.0854,-0.0813,-0.0707,-0.0666,-0.0593,-0.0527,-0.0539,-0.0554,-0.0581,-0.0613,-0.063,-0.0352,-0.0447,-0.0447,-0.0447,-0.0965,-0.0956,-0.0957,-0.0936,-0.0913,-0.0843,-0.0813,-0.0735,-0.0657,-0.0648,-0.0636,-0.0737,-0.0773,-0.0786,-0.0498,-0.0634,-0.0634,-0.0634,-0.0634,-0.0981,-0.099,-0.0985,-0.0981,-0.0965,-0.0945,-0.0888,-0.0842,-0.0809,-0.0728,-0.075,-0.0718,-0.0812,-0.0497,-0.0641,-0.064,-0.0639,-0.0639,-0.0638,-0.1009,-0.1015,-0.101,-0.1025,-0.1033,-0.1003,-0.1033,-0.0964,-0.0896,-0.0915,-0.0919,-0.0917,-0.0644,-0.092,-0.092,-0.0921,-0.0921,-0.0921,-0.0922,-0.1045,-0.104,-0.1076,-0.1074,-0.1108,-0.1131,-0.1108,-0.1113,-0.1083,-0.1034,-0.1034,-0.0645,-0.0823,-0.0815,-0.0928,-0.0927,-0.0926,-0.0925,-0.0925,-0.1093,-0.1091,-0.115,-0.119,-0.127,-0.136,-0.1313,-0.134,-0.131,-0.1321,-0.0831,-0.1094,-0.1061,-0.1046,-0.1043,-0.1208,-0.1208,-0.1208,-0.1208,-0.1136,-0.1134,-0.125,-0.1349,-0.1447,-0.1483,-0.1619,-0.1549,-0.1197,-0.0938,-0.0786,-0.0693,-0.0695,-0.063,-0.0625,-0.0608,-0.0658,-0.0657,-0.0656,-0.1181,-0.1209,-0.1322,-0.1415,-0.1545,-0.1645,-0.1769,-0.1594,-0.0944,-0.0597,-0.0379,-0.0403,-0.0225,-0.0249,-0.0113,-0.0128,-0.0089,0,0]}],[{"header":{"parameterUnit":"m.s-1","parameterCategory":2,"la1":30.2992,"la2":30.254,"lo1":-89.0895,"lo2":-89.0443,"dy":0.0025,"dx":0.0025,"nx":19,"ny":19,"refTime":"2026-05-08T03:00:00:Z","depth":"2","parameterNumber":2,"parameterNumberName":"U-component_of_CURRENTS"},"data":[0,0,0,-0.0977,-0.098,-0.107,-0.107,-0.1125,-0.1125,0,0,0,0,0,0,0,0,0,0,0,-0.0912,-0.0912,-0.0976,-0.098,-0.107,-0.107,-0.1124,-0.1125,0,0,0,0,0,0,0,0,0,0,0,-0.0911,-0.0912,-0.0913,-0.0981,-0.107,-0.107,-0.1124,-0.1063,0,0,0,0,0,0,0,0,0,0,-0.098,-0.0971,-0.0912,-0.0913,-0.0981,-0.107,-0.107,-0.1061,-0.1067,-0.1076,0,-0.1092,0,-0.1139,-0.1131,-0.1131,0,0,0,-0.0947,-0.0966,-0.0972,-0.0913,-0.0983,-0.107,-0.102,-0.1065,-0.1072,-0.1085,-0.1093,-0.1097,-0.114,-0.1131,-0.1131,-0.1196,-0.1197,0,0,-0.0942,-0.0945,-0.0967,-0.0977,-0.1008,-0.1018,-0.1024,-0.1069,-0.1087,-0.1093,-0.1099,-0.1141,-0.1132,-0.1132,-0.1196,-0.1197,0,0,0,-0.095,-0.0942,-0.0948,-0.0973,-0.1011,-0.1021,-0.1028,-0.1085,-0.1082,-0.11,-0.1142,-0.1132,-0.1133,-0.1196,-0.1196,-0.1178,0,0,0,-0.0945,-0.0949,-0.0945,-0.0951,-0.1011,-0.1069,-0.1042,-0.1077,-0.1085,-0.1142,-0.1132,-0.1134,-0.1196,-0.1196,-0.1179,-0.1192,0,0,0,-0.0907,-0.0947,-0.0952,-0.095,-0.1006,-0.1069,-0.1069,-0.1079,-0.1113,-0.1131,-0.1134,-0.1196,-0.1196,-0.1179,-0.1192,-0.1254,0,0,0,-0.0911,-0.0955,-0.0952,-0.0998,-0.1006,-0.1026,-0.1069,-0.1121,-0.114,-0.1132,-0.1196,-0.1196,-0.1179,-0.1192,-0.1253,-0.1408,-0.1425,0,0,-0.097,-0.0963,-0.0981,-0.0982,-0.0978,-0.1011,-0.1035,-0.1102,-0.1143,-0.1171,-0.1173,-0.1179,-0.1192,-0.1254,-0.1424,-0.1442,0,0,0,-0.1,-0.1006,-0.1011,-0.1002,-0.1003,-0.1029,-0.1068,-0.1111,-0.1174,-0.1164,-0.119,-0.12,-0.1239,-0.133,-0.1344,-0.1198,-0.1198,-0.1198,-0.1198,-0.1068,-0.1023,-0.1046,-0.1005,-0.1014,-0.1034,-0.1077,-0.1137,-0.115,-0.1197,-0.1192,-0.1238,-0.1333,-0.1345,-0.1189,-0.1189,-0.1189,-0.1189,-0.1189,-0.1112,-0.1107,-0.107,-0.1082,-0.1055,-0.1066,-0.1124,-0.1149,-0.1205,-0.1203,-0.1242,-0.1315,-0.136,-0.1188,-0.1188,-0.1188,-0.1188,-0.1188,-0.1188,-0.1104,-0.1107,-0.1108,-0.1087,-0.1112,-0.1132,-0.1201,-0.1201,-0.1242,-0.1244,-0.1392,-0.1394,-0.1254,-0.1275,-0.1275,-0.1276,-0.1276,-0.1276,-0.1276,-0.1099,-0.1101,-0.1101,-0.1114,-0.1123,-0.1177,-0.1227,-0.1277,-0.1374,-0.1414,-0.1416,-0.1269,-0.1266,-0.1261,-0.1281,-0.128,-0.128,-0.1279,-0.1279,-0.108,-0.1073,-0.1072,-0.1074,-0.1097,-0.1175,-0.1253,-0.146,-0.1511,-0.1611,-0.1531,-0.1523,-0.1561,-0.1552,-0.1556,-0.1651,-0.1651,-0.1651,-0.1651,-0.1062,-0.1062,-0.1063,-0.1049,-0.1067,-0.1162,-0.1347,-0.1511,-0.1656,-0.1691,-0.1687,-0.1667,-0.1654,-0.1694,-0.1681,-0.1686,-0.1814,-0.1814,-0.1814,-0.1052,-0.1061,-0.1057,-0.1038,-0.1048,-0.1169,-0.1378,-0.1454,-0.1566,-0.1806,-0.1572,-0.169,-0.1653,-0.1635,-0.1689,-0.1671,-0.1676,0,0]},{"header":{"parameterUnit":"m.s-1","parameterCategory":2,"la1":30.2992,"la2":30.254,"lo1":-89.0895,"lo2":-89.0443,"dy":0.0025,"dx":0.0025,"nx":19,"ny":19,"refTime":"2026-05-08T03:00:00:Z","depth":"2","parameterNumber":3,"parameterNumberName":"V-component_of_CURRENTS"},"data":[0,0,0,-0.0292,-0.0293,-0.0266,-0.0265,-0.0208,-0.0208,0,0,0,0,0,0,0,0,0,0,0,-0.0281,-0.0281,-0.0292,-0.0293,-0.0266,-0.0265,-0.0208,-0.0208,0,0,0,0,0,0,0,0,0,0,0,-0.028,-0.0281,-0.0281,-0.0294,-0.0266,-0.0265,-0.0208,-0.0223,0,0,0,0,0,0,0,0,0,0,-0.0247,-0.0288,-0.0281,-0.0282,-0.0294,-0.0266,-0.0265,-0.0223,-0.0222,-0.023,0,-0.0246,0,-0.0259,-0.0209,-0.0209,0,0,0,-0.0244,-0.029,-0.0265,-0.0282,-0.0294,-0.0266,-0.0264,-0.0222,-0.0221,-0.0229,-0.0246,-0.0245,-0.0258,-0.0209,-0.0209,-0.0226,-0.0226,0,0,-0.0245,-0.0286,-0.0267,-0.0265,-0.0314,-0.0266,-0.0264,-0.0221,-0.0242,-0.0246,-0.0244,-0.0257,-0.0209,-0.0209,-0.0226,-0.0226,0,0,0,-0.0283,-0.0287,-0.0263,-0.0267,-0.0282,-0.0266,-0.0264,-0.0243,-0.0231,-0.0243,-0.0256,-0.0209,-0.0209,-0.0226,-0.0226,-0.0218,0,0,0,-0.0282,-0.0312,-0.0264,-0.0289,-0.0284,-0.0276,-0.0287,-0.0232,-0.0229,-0.0257,-0.0209,-0.0209,-0.0225,-0.0226,-0.0218,-0.0275,0,0,0,-0.0277,-0.0313,-0.0313,-0.0291,-0.0302,-0.0277,-0.0261,-0.023,-0.024,-0.0209,-0.0209,-0.0225,-0.0226,-0.0218,-0.0273,-0.034,0,0,0,-0.031,-0.0343,-0.0315,-0.0346,-0.0303,-0.0248,-0.0261,-0.025,-0.0227,-0.0209,-0.0225,-0.0226,-0.0218,-0.0271,-0.0338,-0.0363,-0.0375,0,0,-0.0363,-0.0351,-0.0359,-0.0334,-0.0294,-0.0246,-0.0214,-0.0218,-0.0234,-0.0229,-0.0229,-0.0218,-0.0273,-0.034,-0.0384,-0.0395,0,0,0,-0.0382,-0.0388,-0.0377,-0.0346,-0.0287,-0.0263,-0.0219,-0.0216,-0.0231,-0.0234,-0.0228,-0.0264,-0.0306,-0.0316,-0.0325,-0.0228,-0.0228,-0.0227,-0.0227,-0.0493,-0.0421,-0.0431,-0.0355,-0.0328,-0.0251,-0.0239,-0.023,-0.0212,-0.024,-0.0262,-0.0322,-0.0329,-0.0337,-0.0236,-0.0236,-0.0236,-0.0236,-0.0236,-0.0542,-0.0539,-0.0478,-0.0465,-0.0397,-0.036,-0.0317,-0.0294,-0.0292,-0.0268,-0.0307,-0.0313,-0.0347,-0.0235,-0.0235,-0.0235,-0.0235,-0.0235,-0.0235,-0.0582,-0.0579,-0.056,-0.0524,-0.0531,-0.0492,-0.0524,-0.0434,-0.0388,-0.0372,-0.0433,-0.0433,-0.036,-0.0405,-0.0405,-0.0406,-0.0406,-0.0407,-0.0407,-0.063,-0.0609,-0.0629,-0.0616,-0.0641,-0.0682,-0.0629,-0.0613,-0.0554,-0.0486,-0.0485,-0.0382,-0.0376,-0.0373,-0.0415,-0.0413,-0.0412,-0.0412,-0.0411,-0.0676,-0.0666,-0.0692,-0.0712,-0.075,-0.0804,-0.0773,-0.0768,-0.0726,-0.0732,-0.0543,-0.0537,-0.0566,-0.0558,-0.056,-0.0649,-0.0649,-0.0649,-0.0649,-0.0728,-0.0719,-0.0782,-0.082,-0.0848,-0.0869,-0.0879,-0.0702,-0.0597,-0.0436,-0.0444,-0.035,-0.0347,-0.0358,-0.0354,-0.0349,-0.0383,-0.0382,-0.0381,-0.0781,-0.079,-0.0862,-0.0875,-0.0906,-0.0919,-0.0905,-0.0642,-0.0327,-0.0357,-0.0261,-0.0658,-0.0539,-0.0528,-0.0558,-0.0546,-0.0545,0,0]}],[{"header":{"parameterUnit":"m.s-1","parameterCategory":2,"la1":30.2992,"la2":30.254,"lo1":-89.0895,"lo2":-89.0443,"dy":0.0025,"dx":0.0025,"nx":19,"ny":19,"refTime":"2026-05-08T03:00:00:Z","depth":"4","parameterNumber":2,"parameterNumberName":"U-component_of_CURRENTS"},"data":[0,0,0,-0.0721,-0.0726,-0.0921,-0.0922,-0.0969,-0.0969,0,0,0,0,0,0,0,0,0,0,0,-0.0625,-0.0626,-0.072,-0.0727,-0.0921,-0.0922,-0.0969,-0.0969,0,0,0,0,0,0,0,0,0,0,0,-0.0624,-0.0626,-0.0628,-0.0728,-0.0921,-0.0922,-0.0969,-0.0864,0,0,0,0,0,0,0,0,0,0,-0.0696,-0.0687,-0.0625,-0.0628,-0.0729,-0.0921,-0.0922,-0.0861,-0.087,-0.0834,0,-0.0878,0,-0.095,-0.0971,-0.0971,0,0,0,-0.0692,-0.068,-0.0706,-0.0628,-0.0731,-0.0921,-0.0824,-0.0867,-0.0878,-0.0846,-0.088,-0.0884,-0.095,-0.0971,-0.0972,-0.1018,-0.1019,0,0,-0.0682,-0.0679,-0.0699,-0.0713,-0.0796,-0.0818,-0.083,-0.0876,-0.0904,-0.088,-0.0887,-0.0951,-0.0972,-0.0972,-0.1018,-0.1019,0,0,0,-0.0674,-0.0672,-0.0701,-0.0708,-0.0775,-0.0824,-0.0839,-0.0902,-0.0905,-0.0888,-0.0952,-0.0972,-0.0972,-0.1018,-0.1018,-0.1059,0,0,0,-0.0666,-0.067,-0.0696,-0.0699,-0.0776,-0.0882,-0.0863,-0.09,-0.091,-0.0951,-0.0972,-0.0972,-0.1017,-0.1018,-0.1057,-0.1048,0,0,0,-0.0613,-0.0666,-0.0686,-0.0698,-0.0799,-0.0883,-0.089,-0.0905,-0.0949,-0.0971,-0.0972,-0.1017,-0.1018,-0.1056,-0.1046,-0.1021,0,0,0,-0.0603,-0.0644,-0.0687,-0.0776,-0.0798,-0.0914,-0.0891,-0.0964,-0.0986,-0.0972,-0.1018,-0.1018,-0.1055,-0.1045,-0.102,-0.0905,0,0,0,-0.0634,-0.0649,-0.07,-0.0744,-0.0846,-0.0883,-0.0984,-0.0989,-0.0979,-0.0981,-0.0984,-0.1058,-0.1046,-0.1021,-0.0951,0,0,0,0,-0.0698,-0.0712,-0.0759,-0.0845,-0.0938,-0.0993,-0.1042,-0.1042,-0.1047,-0.1008,-0.1062,-0.1053,-0.1035,-0.0967,-0.1022,-0.1022,-0.1022,-0.1022,-0.1022,-0.0628,-0.0711,-0.0783,-0.0877,-0.0963,-0.1062,-0.1079,-0.1079,-0.1094,-0.1094,-0.1091,-0.1102,-0.1035,-0.1109,-0.1109,-0.1109,-0.111,-0.111,-0.111,-0.0608,-0.0639,-0.0761,-0.0836,-0.0931,-0.1007,-0.1098,-0.1105,-0.1116,-0.1129,-0.1111,-0.1022,-0.1114,-0.1113,-0.1113,-0.1112,-0.1112,-0.1111,-0.1111,-0.0513,-0.0542,-0.06,-0.0717,-0.081,-0.0947,-0.0993,-0.1056,-0.1112,-0.1119,-0.1033,-0.1107,-0.1095,-0.1127,-0.1127,-0.1126,-0.1126,-0.1126,-0.1126,-0.0373,-0.045,-0.0472,-0.0598,-0.0652,-0.0747,-0.0917,-0.0942,-0.1034,-0.104,-0.1134,-0.1106,-0.1106,-0.1095,-0.1124,-0.1125,-0.1125,-0.1125,-0.1125,-0.0279,-0.0294,-0.0332,-0.0368,-0.0486,-0.0564,-0.0729,-0.0851,-0.086,-0.0887,-0.0977,-0.0984,-0.0943,-0.0945,-0.0927,-0.0908,-0.0906,-0.0905,0,-0.0176,-0.0204,-0.0225,-0.0266,-0.0308,-0.046,-0.0523,-0.0627,-0.0749,-0.0732,-0.0824,-0.0918,-0.0926,-0.0871,-0.0872,-0.0845,0,0,0,-0.0117,-0.0134,-0.0124,-0.0187,-0.0247,-0.0377,-0.0535,-0.0583,-0.073,-0.0775,-0.0869,-0.0878,-0.0991,-0.1119,-0.1072,-0.1071,-0.105,0,0]},{"header":{"parameterUnit":"m.s-1","parameterCategory":2,"la1":30.2992,"la2":30.254,"lo1":-89.0895,"lo2":-89.0443,"dy":0.0025,"dx":0.0025,"nx":19,"ny":19,"refTime":"2026-05-08T03:00:00:Z","depth":"4","parameterNumber":3,"parameterNumberName":"V-component_of_CURRENTS"},"data":[0,0,0,0.005,0.0053,0.027,0.0271,0.0538,0.054,0,0,0,0,0,0,0,0,0,0,0,-0.0021,-0.002,0.005,0.0054,0.0269,0.0271,0.0538,0.054,0,0,0,0,0,0,0,0,0,0,0,-0.0021,-0.002,-0.0019,0.0054,0.0269,0.0271,0.0538,0.0386,0,0,0,0,0,0,0,0,0,0,0.0181,0.0153,-0.002,-0.0019,0.0055,0.0269,0.0271,0.0379,0.0395,0.0427,0,0.0442,0,0.048,0.0555,0.0555,0,0,0,0.009,0.0139,0.014,-0.0019,0.0057,0.0268,0.0182,0.0388,0.0407,0.0448,0.0446,0.0457,0.0484,0.0556,0.0557,0.0754,0.0755,0,0,0.0078,0.0082,0.0127,0.0151,0.009,0.0175,0.0189,0.04,0.0443,0.0447,0.0463,0.0489,0.0557,0.0559,0.0754,0.0755,0,0,0,0.0019,0.0074,0.0073,0.014,0.017,0.018,0.0196,0.0435,0.0417,0.0466,0.0492,0.0559,0.0561,0.0753,0.0754,0.0658,0,0,0,0.0014,0.0036,0.0067,0.0081,0.0165,0.0319,0.0227,0.0403,0.0428,0.0491,0.0559,0.0563,0.0753,0.0754,0.0659,0.0586,0,0,0,-0.0026,0.0034,0.0038,0.0078,0.0148,0.0315,0.0316,0.041,0.0442,0.0556,0.0564,0.0752,0.0753,0.066,0.059,0.0597,0,0,0,-0.0001,0.0024,0.0039,0.0066,0.0145,0.0218,0.0315,0.0446,0.0543,0.056,0.0753,0.0754,0.066,0.0592,0.0599,0.0567,0,0,0,0.0031,0.0029,0.003,0.0046,0.0061,0.0192,0.0274,0.0461,0.0572,0.0687,0.0693,0.0658,0.059,0.0597,0.0647,0,0,0,0,0.0038,0.005,0.0052,0.0072,0.011,0.0184,0.037,0.0445,0.061,0.0628,0.0713,0.0673,0.068,0.0671,0.076,0.076,0.076,0.076,0.076,0.0149,0.0097,0.0099,0.0068,0.0108,0.0226,0.0288,0.0438,0.057,0.0643,0.0636,0.0627,0.0618,0.0702,0.0702,0.0701,0.0701,0.0701,0.0701,0.0169,0.0144,0.0107,0.0107,0.0117,0.0207,0.0275,0.0371,0.0485,0.0591,0.0605,0.0621,0.0692,0.0694,0.0695,0.0696,0.0697,0.0697,0.0698,0.0213,0.0184,0.0198,0.0168,0.0171,0.021,0.0186,0.026,0.0412,0.041,0.0509,0.0577,0.0539,0.0489,0.0489,0.0489,0.0489,0.0488,0.0488,0.0249,0.0234,0.0248,0.0211,0.0198,0.0161,0.0158,0.019,0.031,0.039,0.044,0.0556,0.0563,0.053,0.0484,0.0485,0.0485,0.0486,0.0486,0.0254,0.0283,0.0279,0.0275,0.0181,0.0087,0.007,0.0146,0.0199,0.0297,0.0385,0.0392,0.0425,0.0436,0.0399,0.0312,0.0311,0.031,0,0.0277,0.0274,0.0296,0.0249,0.0145,0.003,0.0031,0.0082,0.0217,0.021,0.0246,0.0339,0.0347,0.0382,0.039,0.0346,0,0,0,0.0268,0.0277,0.0295,0.0258,0.0121,0.0025,0.0017,0.0072,0.0166,0.0246,0.0295,0.0299,0.0402,0.0471,0.0538,0.0547,0.0498,0,0]}]]